Page, AZ

5:57 AM MDT on August 19, 2017 (GMT -0600)
Page Municipal

Weather History for KPGA - September, 2011

Change the Weather History Date:

Tuesday, September 27, 2011

  Actual Average Record
Temperature  
Mean Temperature 77 °F -  
Max Temperature 90 °F 80 °F 91 °F (2010)
Min Temperature 64 °F 54 °F 44 °F (1986)
Cooling Degree Days 12    
Growing Degree Days 27 (Base 50)    
Moisture  
Dew Point 31 °F    
Average Humidity 20    
Maximum Humidity 33    
Minimum Humidity 10    
Precipitation  
Precipitation 0.00 in - - ()
Sea Level Pressure  
Sea Level Pressure 29.95 in    
Wind  
Wind Speed 3 mph (WSW)    
Max Wind Speed 6 mph    
Max Gust Speed -    
Visibility 10 miles    
Events      
Averages and records for this station are not official NWS values.
T = Trace of Precipitation, MM = Missing Value Source: NWS Daily Summary

Daily Weather History Graph

Daily Weather History Graph

Search for Another Location

Airport or City:

Trip Planner

Search our weather history database for the weather conditions in past years. The results will help you decide how hot, cold, wet, or windy it might be!

Date:

Astronomy

Sep. 27, 2011 Rise Set
Actual Time 6:17 AM MST 6:15 PM MST
Civil Twilight 5:51 AM MST 6:41 PM MST
Nautical Twilight 5:21 AM MST 7:11 PM MST
Astronomical Twilight 4:51 AM MST 7:41 PM MST
Moon 6:34 AM MST (9/27) 6:11 PM MST (9/27)
Length of Visible Light 12h 49m
Length of Day
11h 57m
New Moon, 0% of the Moon is Illuminated
Sep 27
New Moon
Oct 3
First Quarter
Oct 11
Full
Oct 19
Last Quarter
Oct 26
New

Hourly Weather History & Observations

Time (MST) Temp. Dew Point Humidity Pressure Visibility Wind Dir Wind Speed Gust Speed Precip Events Conditions
12:53 AM 72.0 °F 30.0 °F 21% 29.92 in 10.0 mi SW 3.5 mph - N/A   Clear
1:53 AM 70.0 °F 30.0 °F 23% 29.93 in 10.0 mi SW 4.6 mph - N/A   Clear
2:53 AM 66.9 °F 33.1 °F 28% 29.94 in 10.0 mi Calm Calm - N/A   Clear
3:53 AM 66.0 °F 32.0 °F 28% 29.95 in 10.0 mi SSE 4.6 mph - N/A   Clear
4:53 AM 66.0 °F 32.0 °F 28% 29.96 in 10.0 mi SSE 4.6 mph - N/A   Clear
5:53 AM 64.9 °F 30.9 °F 28% 29.97 in 10.0 mi SW 3.5 mph - N/A   Clear
6:53 AM 64.0 °F 34.0 °F 33% 30.01 in 10.0 mi Calm Calm - N/A   Clear
7:53 AM 70.0 °F 34.0 °F 27% 30.02 in 10.0 mi NW 4.6 mph - N/A   Clear
8:53 AM 72.0 °F 35.1 °F 26% 30.03 in 10.0 mi NW 4.6 mph - N/A   Clear
9:53 AM 75.9 °F 36.0 °F 23% 30.03 in 10.0 mi North 4.6 mph - N/A   Clear
10:53 AM 79.0 °F 35.1 °F 20% 30.01 in 10.0 mi Calm Calm - N/A   Clear
11:53 AM 82.9 °F 36.0 °F 19% 29.98 in 10.0 mi NE 3.5 mph - N/A   Clear
12:53 PM 84.9 °F 34.0 °F 16% 29.95 in 10.0 mi NNE 3.5 mph - N/A   Clear
1:53 PM 88.0 °F 32.0 °F 14% 29.93 in 10.0 mi NNE 5.8 mph - N/A   Clear
2:53 PM 90.0 °F 28.9 °F 11% 29.91 in 10.0 mi Calm Calm - N/A   Clear
3:53 PM 88.0 °F 24.1 °F 10% 29.90 in 10.0 mi Calm Calm - N/A   Clear
4:53 PM 89.1 °F 25.0 °F 10% 29.89 in 10.0 mi Calm Calm - N/A   Clear
5:53 PM 84.9 °F 30.0 °F 14% 29.90 in 10.0 mi Calm Calm - N/A   Clear
6:53 PM 80.1 °F 32.0 °F 17% 29.91 in 10.0 mi Calm Calm - N/A   Clear
7:53 PM 77.0 °F 27.0 °F 16% 29.91 in 10.0 mi SE 4.6 mph - N/A   Clear
8:53 PM 78.1 °F 26.1 °F 15% 29.93 in 10.0 mi South 4.6 mph - N/A   Clear
9:53 PM 72.0 °F 30.0 °F 21% 29.94 in 10.0 mi Calm Calm - N/A   Clear
10:53 PM 72.0 °F 28.0 °F 20% 29.94 in 10.0 mi West 3.5 mph - N/A   Clear
11:53 PM 73.9 °F 26.1 °F 17% 29.93 in 10.0 mi SW 4.6 mph - N/A   Clear